GW4786 Weather Reports


time (UTC)temp
F
wind
direction
speed
knots
gust
knots
rain 1hr
in
rain 24hr
in
rain mn
in
humidity
%
barometer
mb
20260505214600 78 205 8.7 20.9 0.00 0.00 0.00 31 1009.4
20260505214028 79 173 7.8 20.9 0.00 0.00 0.00 30 1009.4
20260505213529 79 183 7.0 20.0 0.00 0.00 0.00 30 1009.3
20260505213039 79 203 9.6 20.9 0.00 0.00 0.00 30 1009.4
20260505212528 80 178 7.8 20.9 0.00 0.00 0.00 30 1009.3
20260505212030 80 202 7.8 17.4 0.00 0.00 0.00 29 1009.4
20260505211542 80 209 7.0 17.4 0.00 0.00 0.00 29 1009.3
20260505211028 81 205 8.7 20.0 0.00 0.00 0.00 29 1009.1
20260505210527 80 235 9.6 20.9 0.00 0.00 0.00 29 1009.3
20260505210045 80 213 7.0 22.6 0.00 0.00 0.00 28 1009.2
20260505205527 80 161 10.4 22.6 0.00 0.00 0.00 29 1009.2
20260505205030 80 164 8.7 20.0 0.00 0.00 0.00 28 1009.2
20260505204543 81 207 6.1 20.9 0.00 0.00 0.00 32 1009.2
20260505204028 80 194 9.6 20.9 0.00 0.00 0.00 28 1009.1
20260505203527 80 197 7.8 24.3 0.00 0.00 0.00 29 1009.1
20260505203039 80 118 8.7 25.2 0.00 0.00 0.00 30 1009.2
20260505202530 80 228 12.2 25.2 0.00 0.00 0.00 30 1009.2
20260505202028 80 145 7.8 22.6 0.00 0.00 0.00 31 1009.3
20260505201538 80 152 7.8 22.6 0.00 0.00 0.00 29 1009.1
20260505201030 80 225 6.1 22.6 0.00 0.00 0.00 31 1009.2
20260505200529 80 215 10.4 22.6 0.00 0.00 0.00 30 1009.3
20260505200056 80 190 9.6 16.5 0.00 0.00 0.00 31 1009.5
20260505195529 80 180 7.8 20.0 0.00 0.00 0.00 32 1009.3
20260505195029 80 200 10.4 20.0 0.00 0.00 0.00 31 1009.5
20260505194544 80 182 8.7 19.1 0.00 0.00 0.00 33 1009.7
20260505194029 80 203 6.1 20.9 0.00 0.00 0.00 33 1009.5
20260505193530 80 153 10.4 22.6 0.00 0.00 0.00 33 1009.4
20260505193043 80 213 9.6 22.6 0.00 0.00 0.00 33 1009.4
20260505192531 80 199 7.8 20.0 0.00 0.00 0.00 34 1009.6
20260505192029 80 196 7.8 15.6 0.00 0.00 0.00 34 1009.6
20260505191545 80 226 9.6 18.2 0.00 0.00 0.00 33 1009.7
20260505191029 80 199 8.7 20.0 0.00 0.00 0.00 32 1009.9
20260505190531 80 185 10.4 20.0 0.00 0.00 0.00 33 1010.0
20260505190041 80 212 9.6 20.9 0.00 0.00 0.00 32 1010.1
20260505185529 79 219 11.3 20.9 0.00 0.00 0.00 33 1010.1
20260505185033 79 186 9.6 17.4 0.00 0.00 0.00 33 1010.1
20260505184538 79 181 8.7 17.4 0.00 0.00 0.00 32 1010.1
20260505184031 79 182 11.3 17.4 0.00 0.00 0.00 32 1010.2
20260505183529 79 188 7.8 18.2 0.00 0.00 0.00 33 1010.2
20260505183053 79 230 9.6 18.2 0.00 0.00 0.00 33 1010.1
20260505182529 79 178 8.7 18.2 0.00 0.00 0.00 32 1010.3
20260505182029 79 157 7.8 18.2 0.00 0.00 0.00 33 1010.2
20260505181541 79 171 6.1 20.0 0.00 0.00 0.00 34 1010.4
20260505181028 79 162 8.7 20.0 0.00 0.00 0.00 33 1010.5
20260505180533 79 194 8.7 18.2 0.00 0.00 0.00 32 1010.6
20260505180047 79 218 7.0 16.5 0.00 0.00 0.00 36 1010.8
20260505175531 79 163 8.7 21.7 0.00 0.00 0.00 33 1010.8
20260505175032 79 196 9.6 21.7 0.00 0.00 0.00 36 1010.7
20260505174558 79 207 5.2 17.4 0.00 0.00 0.00 34 1010.8
20260505174033 78 159 7.0 17.4 0.00 0.00 0.00 33 1010.9
20260505173532 78 219 6.1 15.6 0.00 0.00 0.00 37 1010.9
20260505173044 78 136 10.4 15.6 0.00 0.00 0.00 34 1010.9
20260505172531 78 176 7.0 14.8 0.00 0.00 0.00 34 1011.0
20260505172031 78 174 5.2 11.3 0.00 0.00 0.00 36 1010.9
20260505171548 78 199 5.2 15.6 0.00 0.00 0.00 34 1010.9
20260505171032 78 183 7.0 15.6 0.00 0.00 0.00 36 1011.0
20260505170531 78 235 7.0 15.6 0.00 0.00 0.00 35 1011.1
20260505170040 78 192 6.1 15.6 0.00 0.00 0.00 36 1011.1
20260505165531 78 162 6.1 13.9 0.00 0.00 0.00 38 1011.2
20260505165031 77 212 6.1 13.9 0.00 0.00 0.00 39 1011.3
20260505164544 77 180 4.3 14.8 0.00 0.00 0.00 39 1011.3
20260505164032 77 206 7.0 17.4 0.00 0.00 0.00 41 1011.6
20260505163532 77 202 7.0 17.4 0.00 0.00 0.00 38 1011.7
20260505163039 77 172 6.1 16.5 0.00 0.00 0.00 40 1011.4
20260505162532 76 188 7.8 13.0 0.00 0.00 0.00 42 1011.6
20260505162032 77 166 7.0 16.5 0.00 0.00 0.00 40 1011.6
20260505161545 77 196 5.2 16.5 0.00 0.00 0.00 42 1011.8
20260505161032 77 148 6.1 11.3 0.00 0.00 0.00 40 1011.5
20260505160532 77 196 6.1 12.2 0.00 0.00 0.00 41 1011.5
20260505153043 77 284 1.7 12.2 0.00 0.00 0.00 42 1011.8
20260505152534 76 286 4.3 12.2 0.00 0.00 0.00 45 1011.9
20260505152031 76 221 2.6 11.3 0.00 0.00 0.00 44 1011.7
20260505151540 76 124 3.5 11.3 0.00 0.00 0.00 41 1011.6
20260505151031 76 157 4.3 13.0 0.00 0.00 0.00 41 1011.6
20260505150532 76 221 4.3 13.0 0.00 0.00 0.00 42 1011.6
20260505140527 73 254 4.3 12.2 0.00 0.00 0.00 47 1011.9
20260505140107 72 226 3.5 13.9 0.00 0.00 0.00 47 1011.9
20260505125029 65 204 3.5 7.8 0.00 0.00 0.00 58 1012.8
20260505124541 65 191 5.2 8.7 0.00 0.00 0.00 57 1012.7
20260505124030 65 180 3.5 8.7 0.00 0.00 0.00 58 1012.6
20260505123529 64 184 4.3 8.7 0.00 0.00 0.00 58 1012.5
20260505123049 64 184 4.3 8.7 0.00 0.00 0.00 59 1012.5
20260505122529 63 219 4.3 7.8 0.00 0.00 0.00 60 1012.5
20260505122031 63 225 3.5 7.8 0.00 0.00 0.00 61 1012.6
20260505121542 62 204 2.6 7.8 0.00 0.00 0.00 62 1012.5
20260505121029 62 176 2.6 8.7 0.00 0.00 0.00 63 1012.5
20260505120528 61 161 4.3 10.4 0.00 0.00 0.00 62 1012.3
20260505120046 61 153 4.3 11.3 0.00 0.00 0.00 62 1012.2
20260505115529 61 219 4.3 11.3 0.00 0.00 0.00 63 1012.2
20260505115029 60 163 6.1 9.6 0.00 0.00 0.00 63 1012.2
20260505114550 60 177 4.3 12.2 0.00 0.00 0.00 64 1012.2
20260505114030 60 217 6.1 12.2 0.00 0.00 0.00 64 1012.3
20260505113529 60 205 6.1 12.2 0.00 0.00 0.00 64 1012.3
20260505113047 60 183 5.2 10.4 0.00 0.00 0.00 64 1012.2
20260505112529 59 211 6.1 10.4 0.00 0.00 0.00 65 1012.1
20260505112029 59 219 3.5 10.4 0.00 0.00 0.00 65 1012.2
20260505111543 59 190 5.2 10.4 0.00 0.00 0.00 66 1012.0
20260505111028 59 221 5.2 12.2 0.00 0.00 0.00 66 1012.0
20260505110529 59 223 5.2 12.2 0.00 0.00 0.00 66 1011.7
20260505102029 58 175 4.3 7.0 0.00 0.00 0.00 68 1011.2
20260505101548 58 196 4.3 8.7 0.00 0.00 0.00 68 1011.1
20260505101029 58 173 4.3 8.7 0.00 0.00 0.00 68 1011.1
20260505100530 58 184 4.3 9.6 0.00 0.00 0.00 68 1011.1
20260505100045 58 160 5.2 11.3 0.00 0.00 0.00 68 1011.1
20260505095530 58 203 4.3 11.3 0.00 0.00 0.00 67 1011.1
20260505095034 58 186 5.2 7.8 0.00 0.00 0.00 68 1011.1
20260505094544 58 205 4.3 10.4 0.00 0.00 0.00 68 1011.0
20260505094031 58 192 4.3 10.4 0.00 0.00 0.00 68 1011.0
20260505093529 58 197 4.3 8.7 0.00 0.00 0.00 68 1011.0
20260505093050 58 193 4.3 7.8 0.00 0.00 0.00 69 1011.0
20260505092529 58 191 2.6 8.7 0.00 0.00 0.00 69 1011.1
20260505092029 58 194 4.3 8.7 0.00 0.00 0.00 69 1011.1
20260505091545 58 198 4.3 8.7 0.00 0.00 0.00 69 1011.0
20260505091028 58 219 3.5 7.8 0.00 0.00 0.00 69 1011.0
20260505090530 58 168 3.5 7.8 0.00 0.00 0.00 69 1010.9
20260505090040 58 159 3.5 7.8 0.00 0.00 0.00 69 1010.8
20260505085532 58 202 2.6 7.0 0.00 0.00 0.00 69 1010.9
20260505085033 58 197 3.5 12.2 0.00 0.00 0.00 69 1010.9
20260505084538 58 195 4.3 12.2 0.00 0.00 0.00 69 1010.9
20260505084030 58 182 3.5 8.7 0.00 0.00 0.00 68 1010.9
20260505083529 58 211 3.5 8.7 0.00 0.00 0.00 68 1011.0
20260505083049 59 207 3.5 8.7 0.00 0.00 0.00 68 1011.0
20260505082533 59 185 4.3 8.7 0.00 0.00 0.00 68 1011.0
20260505082029 59 146 3.5 7.8 0.00 0.00 0.00 67 1011.0
20260505081541 59 161 4.3 7.0 0.00 0.00 0.00 66 1010.9
20260505081031 60 173 3.5 7.8 0.00 0.00 0.00 66 1010.8
20260505080529 60 165 2.6 8.7 0.00 0.00 0.00 66 1010.8
20260505080044 60 156 4.3 8.7 0.00 0.00 0.00 65 1010.7
20260505075531 61 181 3.5 7.0 0.00 0.00 0.00 65 1010.7
20260505075030 61 184 3.5 8.7 0.00 0.00 0.00 64 1010.7
20260505074539 61 202 3.5 8.7 0.00 0.00 0.00 64 1010.6
20260505074030 61 215 3.5 9.6 0.00 0.00 0.00 64 1010.6
20260505073530 61 205 2.6 9.6 0.00 0.00 0.00 63 1010.5
20260505073052 61 171 4.3 8.7 0.00 0.00 0.00 64 1010.5
20260505072529 61 199 3.5 7.8 0.00 0.00 0.00 64 1010.5
20260505072029 61 180 4.3 7.8 0.00 0.00 0.00 64 1010.5
20260505071553 61 242 3.5 6.1 0.00 0.00 0.00 64 1010.4
20260505071031 61 198 2.6 7.0 0.00 0.00 0.00 65 1010.5
20260505070529 60 186 3.5 7.0 0.00 0.00 0.00 65 1010.6
20260505070041 60 171 3.5 9.6 0.00 0.00 0.00 65 1010.6
20260505065529 60 196 3.5 9.6 0.00 0.00 0.00 65 1010.6
20260505065028 60 211 3.5 9.6 0.00 0.00 0.00 65 1010.7
20260505064542 60 175 3.5 8.7 0.00 0.00 0.00 65 1010.6
20260505064029 60 159 2.6 7.8 0.00 0.00 0.00 65 1010.7
20260505063528 60 175 3.5 7.8 0.00 0.00 0.00 65 1010.8
20260505063041 60 161 1.7 5.2 0.00 0.00 0.00 65 1010.7
20260505062531 60 202 1.7 5.2 0.00 0.00 0.00 65 1010.8
20260505062027 60 207 1.7 4.3 0.00 0.00 0.00 65 1010.8
20260505061538 60 181 1.7 3.5 0.00 0.00 0.00 65 1010.8
20260505061028 60 160 1.7 6.1 0.00 0.00 0.00 65 1010.9
20260505060529 61 210 2.6 5.2 0.00 0.00 0.00 65 1010.8
20260505060046 61 188 2.6 5.2 0.00 0.00 0.00 64 1010.8
20260505055532 61 169 2.6 5.2 0.00 0.00 0.00 64 1010.8
20260505055029 61 171 2.6 5.2 0.00 0.00 0.00 63 1010.9
20260505054549 61 192 1.7 4.3 0.00 0.00 0.00 63 1010.8
20260505054028 62 183 1.7 5.2 0.00 0.00 0.00 62 1010.9
20260505053528 62 186 2.6 8.7 0.00 0.00 0.00 62 1011.0
20260505053045 62 193 4.3 8.7 0.00 0.00 0.00 61 1011.0
20260505052527 62 203 4.3 9.6 0.00 0.00 0.00 61 1011.0
20260505052027 62 215 3.5 9.6 0.00 0.00 0.00 61 1011.0
20260505051557 62 178 4.3 9.6 0.00 0.00 0.00 61 1010.9
20260505051028 62 196 6.1 11.3 0.00 0.00 0.00 61 1010.8
20260505050530 62 211 3.5 11.3 0.00 0.00 0.00 61 1010.8
20260505041544 62 175 2.6 6.1 0.00 0.00 0.00 57 1010.8
20260505041030 62 160 2.6 7.0 0.00 0.00 0.00 57 1010.8
20260505040530 62 202 2.6 7.0 0.00 0.00 0.00 57 1010.8
20260505040044 62 189 2.6 7.0 0.00 0.00 0.00 57 1010.8
20260505035532 62 206 2.6 6.1 0.00 0.00 0.00 57 1010.7
20260505035030 62 206 2.6 6.1 0.00 0.00 0.00 57 1010.8
20260505034541 62 210 3.5 8.7 0.00 0.00 0.00 57 1010.8
20260505034030 62 188 4.3 8.7 0.00 0.00 0.00 57 1010.7
20260505033529 62 214 3.5 7.8 0.00 0.00 0.00 57 1010.7
20260505033039 62 180 3.5 7.0 0.00 0.00 0.00 57 1010.8
20260505032530 62 184 2.6 5.2 0.00 0.00 0.00 57 1010.7
20260505032030 62 191 2.6 6.1 0.00 0.00 0.00 57 1010.6
20260505031552 62 205 1.7 6.1 0.00 0.00 0.00 56 1010.7
20260505031027 62 209 2.6 7.8 0.00 0.00 0.00 56 1010.7
20260505030530 62 167 2.6 7.8 0.00 0.00 0.00 55 1010.7
20260505030044 63 143 2.6 7.8 0.00 0.00 0.00 55 1010.7
20260505025531 63 184 1.7 4.3 0.00 0.00 0.00 55 1010.8
20260505025026 63 186 2.6 4.3 0.00 0.00 0.00 54 1010.8
20260505024543 63 154 0.9 3.5 0.00 0.00 0.00 54 1010.8
20260505024029 63 175 1.7 4.3 0.00 0.00 0.00 54 1010.9
20260505023531 64 152 1.7 6.1 0.00 0.00 0.00 53 1010.9
20260505023046 64 144 1.7 6.1 0.00 0.00 0.00 53 1010.8
20260505022526 64 198 1.7 4.3 0.00 0.00 0.00 52 1010.9
20260505022029 64 169 1.7 3.5 0.00 0.00 0.00 52 1010.8
20260505021541 65 157 1.7 3.5 0.00 0.00 0.00 52 1010.8
20260505021029 65 197 0.9 3.5 0.00 0.00 0.00 51 1010.7
20260505020531 65 161 1.7 4.3 0.00 0.00 0.00 50 1010.6
20260505020039 66 186 0.9 4.3 0.00 0.00 0.00 49 1010.6
20260505015532 66 164 1.7 5.2 0.00 0.00 0.00 49 1010.5
20260505015033 66 137 2.6 5.2 0.00 0.00 0.00 49 1010.6
20260505014546 66 176 1.7 4.3 0.00 0.00 0.00 49 1010.6
20260505014033 66 221 1.7 6.1 0.00 0.00 0.00 49 1010.6
20260505013530 66 174 2.6 6.1 0.00 0.00 0.00 48 1010.5
20260505013059 66 192 3.5 6.1 0.00 0.00 0.00 48 1010.3
20260505012530 66 175 0.9 7.0 0.00 0.00 0.00 48 1010.2
20260505012031 66 153 3.5 7.0 0.00 0.00 0.00 48 1010.1
20260505011544 66 195 2.6 7.0 0.00 0.00 0.00 47 1010.0
20260505011030 67 155 1.7 7.0 0.00 0.00 0.00 47 1010.1
20260505010530 67 183 3.5 7.0 0.00 0.00 0.00 46 1010.0
20260505010041 67 165 3.5 7.8 0.00 0.00 0.00 46 1010.0
20260505005534 67 150 2.6 8.7 0.00 0.00 0.00 45 1010.0
20260505005031 67 157 5.2 8.7 0.00 0.00 0.00 45 1009.9
20260505004550 68 144 3.5 7.8 0.00 0.00 0.00 45 1009.9
20260505004031 68 178 3.5 7.8 0.00 0.00 0.00 44 1009.9
20260505003533 68 201 4.3 7.8 0.00 0.00 0.00 44 1009.9
20260505003041 68 136 4.3 7.8 0.00 0.00 0.00 44 1009.9
20260505002530 68 175 4.3 9.6 0.00 0.00 0.00 44 1010.0
20260505002031 68 169 3.5 9.6 0.00 0.00 0.00 44 1010.0
20260505001541 68 136 3.5 7.0 0.00 0.00 0.00 43 1009.9
20260505001034 68 169 2.6 7.0 0.00 0.00 0.00 43 1009.9
20260505000533 69 142 3.5 7.0 0.00 0.00 0.00 43 1010.1
20260505000053 69 139 3.5 9.6 0.00 0.00 0.00 42 1010.0
20260504235530 69 178 3.5 9.6 0.00 0.00 0.00 42 1009.9
20260504235031 69 146 3.5 8.7 0.00 0.00 0.00 41 1009.7
20260504234540 70 182 4.3 8.7 0.00 0.00 0.00 40 1009.8
20260504234031 70 138 4.3 10.4 0.00 0.00 0.00 40 1009.7
20260504233530 70 198 6.1 10.4 0.00 0.00 0.00 39 1009.7
20260504233041 71 185 5.2 14.8 0.00 0.00 0.00 39 1009.6
20260504232531 71 161 6.1 14.8 0.00 0.00 0.00 39 1009.7
20260504232030 71 159 6.1 12.2 0.00 0.00 0.00 38 1009.8
20260504231538 72 175 5.2 8.7 0.00 0.00 0.00 38 1009.7
20260504231030 72 185 4.3 8.7 0.00 0.00 0.00 38 1009.7
20260504230530 72 168 5.2 10.4 0.00 0.00 0.00 37 1009.7
20260504230041 72 182 4.3 10.4 0.00 0.00 0.00 37 1009.8
20260504225532 72 137 5.2 12.2 0.00 0.00 0.00 38 1009.8
20260504225027 72 159 4.3 13.9 0.00 0.00 0.00 37 1009.8
20260504224543 72 142 7.0 13.9 0.00 0.00 0.00 36 1009.9
20260504224026 72 192 5.2 9.6 0.00 0.00 0.00 36 1009.9
20260504223529 72 162 4.3 13.0 0.00 0.00 0.00 37 1009.9
20260504223044 73 126 7.0 13.0 0.00 0.00 0.00 36 1009.8
20260504222532 73 209 7.0 12.2 0.00 0.00 0.00 37 1009.8
20260504222027 73 207 4.3 11.3 0.00 0.00 0.00 37 1009.9
20260504221545 73 142 5.2 11.3 0.00 0.00 0.00 36 1009.8
20260504221027 73 149 3.5 9.6 0.00 0.00 0.00 38 1009.8
20260504220527 72 209 4.3 13.0 0.00 0.00 0.00 37 1009.9
20260504220046 72 176 5.2 13.0 0.00 0.00 0.00 37 1009.7
20260504215527 72 165 3.5 11.3 0.00 0.00 0.00 36 1009.8
20260504215029 72 171 5.2 11.3 0.00 0.00 0.00 36 1009.7